GW0719 Weather Reports


Display with metric or nautical units.
time (UTC)temp
F
wind
direction
speed
MPH
gust
MPH
rain 1hr
in
rain 24hr
in
rain mn
in
humidity
%
barometer
mb
20260506071254 20 36 0.0 0.0 0.00 0.00 0.00 10 1020.5
20260506070750 20 37 0.0 0.0 0.00 0.00 0.00 10 1020.9
20260506070247 21 24 0.0 0.0 0.00 0.00 0.00 10 1020.8
20260506062224 21 350 0.0 0.0 0.00 0.00 0.00 10 1021.0
20260506061720 22 335 0.0 0.0 0.00 0.00 0.00 10 1021.1
20260506061218 23 359 0.0 0.0 0.00 0.00 0.00 10 1020.7
20260506060716 23 343 0.0 0.0 0.00 0.00 0.00 10 1020.9
20260506060213 23 344 0.0 0.0 0.00 0.00 0.00 10 1021.0
20260506051145 24 11 0.0 0.0 0.00 0.00 0.00 10 1021.0
20260506050643 24 356 0.0 0.0 0.00 0.00 0.00 10 1021.0
20260506050140 24 7 0.0 0.0 0.00 0.00 0.00 10 1021.1
20260506045133 24 21 0.0 0.0 0.00 0.00 0.00 10 1021.2
20260506044631 24 4 0.0 0.0 0.00 0.00 0.00 10 1021.2
20260506044128 25 359 0.0 0.0 0.00 0.00 0.00 10 1021.2
20260506043625 25 338 0.0 1.0 0.00 0.00 0.00 10 1021.2
20260506043123 25 313 0.0 0.0 0.00 0.00 0.00 10 1021.1
20260506042622 26 324 0.0 0.0 0.00 0.00 0.00 10 1021.0
20260506042119 25 11 0.0 0.0 0.00 0.00 0.00 10 1021.1
20260506041618 26 13 0.0 0.0 0.00 0.00 0.00 10 1021.2
20260506041114 29 3 0.0 0.0 0.00 0.00 0.00 10 1021.2
20260506040612 30 7 0.0 0.0 0.00 0.00 0.00 10 1021.1
20260506040108 30 41 0.0 0.0 0.00 0.00 0.00 10 1021.1
20260506035605 31 40 0.0 0.0 0.00 0.00 0.00 10 1021.3
20260506035102 32 40 0.0 0.0 0.00 0.00 0.00 10 1021.0
20260506034559 32 23 0.0 0.0 0.00 0.00 0.00 10 1021.2
20260506034056 32 24 0.0 0.0 0.00 0.00 0.00 10 1021.1
20260506033553 32 22 0.0 0.0 0.00 0.00 0.00 10 1021.0
20260506033050 32 15 0.0 0.0 0.00 0.00 0.00 10 1021.0
20260506032548 33 27 0.0 0.0 0.00 0.00 0.00 10 1021.0
20260506032044 34 41 0.0 0.0 0.00 0.00 0.00 10 1021.0
20260506031542 33 49 0.0 0.0 0.00 0.00 0.00 10 1021.0
20260506031038 33 48 0.0 0.0 0.00 0.00 0.00 10 1020.9
20260506030537 34 44 0.0 0.0 0.00 0.00 0.00 10 1020.8
20260506030034 35 50 0.0 0.0 0.00 0.00 0.00 10 1021.0
20260506025531 37 53 0.0 0.0 0.00 0.00 0.00 10 1021.0
20260506025027 38 46 0.0 0.0 0.00 0.00 0.00 10 1020.9
20260506024524 39 46 0.0 0.0 0.00 0.00 0.00 10 1020.8
20260506024020 40 47 0.0 0.0 0.00 0.00 0.00 10 1020.8
20260506023516 41 41 0.0 0.0 0.00 0.00 0.00 10 1020.8
20260506023014 41 43 0.0 0.0 0.00 0.00 0.00 10 1020.7
20260506022511 42 51 0.0 0.0 0.00 0.00 0.00 10 1020.9
20260506022009 42 46 0.0 0.0 0.00 0.00 0.00 10 1020.7
20260506021506 43 41 0.0 0.0 0.00 0.00 0.00 10 1020.6
20260506021003 43 34 0.0 0.0 0.00 0.00 0.00 10 1020.6
20260506020501 44 40 0.0 1.0 0.00 0.00 0.00 10 1020.5
20260506015957 44 41 0.0 0.0 0.00 0.00 0.00 10 1020.7
20260506015455 44 48 0.0 0.0 0.00 0.00 0.00 10 1020.6
20260506014952 44 43 0.0 0.0 0.00 0.00 0.00 10 1020.5
20260506014449 45 44 0.0 0.0 0.00 0.00 0.00 10 1020.7
20260506013945 45 28 0.0 0.0 0.00 0.00 0.00 10 1020.7
20260506013443 45 45 0.0 2.0 0.00 0.00 0.00 10 1020.6
20260506012939 45 34 0.0 1.0 0.00 0.00 0.00 10 1020.6
20260506012436 45 19 0.0 0.0 0.00 0.00 0.00 10 1020.6
20260506011933 45 34 0.0 0.0 0.00 0.00 0.00 10 1020.5
20260506011430 45 46 0.0 2.0 0.00 0.00 0.00 10 1020.3
20260506010927 45 41 0.0 0.0 0.00 0.00 0.00 10 1020.5
20260506010426 46 36 0.0 0.0 0.00 0.00 0.00 10 1020.5
20260506005921 46 37 0.0 1.0 0.00 0.00 0.00 10 1020.5
20260506005420 46 37 1.0 2.0 0.00 0.00 0.00 10 1020.7
20260506004914 46 25 0.0 0.0 0.00 0.00 0.00 10 1020.3
20260506004413 46 40 0.0 0.0 0.00 0.00 0.00 10 1020.5
20260506003908 46 42 1.0 15.0 0.00 0.00 0.00 10 1020.3
20260506003405 46 15 0.0 0.0 0.00 0.00 0.00 10 1020.3
20260506002902 47 8 0.0 3.0 0.00 0.00 0.00 10 1020.5
20260506002358 46 40 0.0 2.0 0.00 0.00 0.00 10 1020.5
20260506001853 47 39 0.0 2.0 0.00 0.00 0.00 10 1020.3
20260506001350 47 27 0.0 0.0 0.00 0.00 0.00 10 1020.5
20260506000847 47 23 0.0 0.0 0.00 0.00 0.00 10 1020.5
20260506000346 46 29 1.0 2.0 0.00 0.00 0.00 10 1020.3
20260505235842 47 13 0.0 1.0 0.00 0.00 0.00 10 1020.5
20260505235339 47 356 0.0 1.0 0.00 0.00 0.00 10 1020.5
20260505234836 47 28 1.0 1.0 0.00 0.00 0.00 10 1020.5
20260505234334 47 45 0.0 0.0 0.00 0.00 0.00 10 1020.2
20260505233831 47 31 0.0 1.0 0.00 0.00 0.00 10 1020.3
20260505233329 47 59 1.0 2.0 0.00 0.00 0.00 10 1020.5
20260505232826 47 13 1.0 2.0 0.00 0.00 0.00 10 1020.6
20260505232323 47 37 0.0 1.0 0.00 0.00 0.00 10 1020.6
20260505231820 47 22 0.0 0.0 0.00 0.00 0.00 10 1020.5
20260505231318 48 3 0.0 2.0 0.00 0.00 0.00 10 1020.5
20260505230816 47 43 1.0 3.0 0.00 0.00 0.00 10 1020.2
20260505230313 47 31 1.0 2.0 0.00 0.00 0.00 10 1020.5
20260505225809 47 9 0.0 3.0 0.00 0.00 0.00 10 1020.6
20260505225306 48 20 0.0 0.0 0.00 0.00 0.00 10 1020.6
20260505224801 47 3 0.0 3.0 0.00 0.00 0.00 10 1020.6
20260505224259 48 351 0.0 0.0 0.00 0.00 0.00 10 1020.5
20260505223756 47 32 0.0 1.0 0.00 0.00 0.00 10 1020.3
20260505223253 48 12 0.0 3.0 0.00 0.00 0.00 10 1020.5
20260505222749 48 5 0.0 0.0 0.00 0.00 0.00 10 1020.5
20260505222245 47 30 0.0 0.0 0.00 0.00 0.00 10 1020.6
20260505221743 48 10 0.0 0.0 0.00 0.00 0.00 10 1020.5
20260505221239 47 35 0.0 3.0 0.00 0.00 0.00 10 1020.7
20260505220736 48 8 0.0 0.0 0.00 0.00 0.00 10 1020.5
20260505220233 47 14 1.0 2.0 0.00 0.00 0.00 10 1020.5
20260505215731 47 29 0.0 2.0 0.00 0.00 0.00 10 1020.5
20260505215229 47 40 0.0 15.0 0.00 0.00 0.00 10 1020.5
20260505214727 47 22 0.0 0.0 0.00 0.00 0.00 10 1020.8
20260505214224 47 6 1.0 3.0 0.00 0.00 0.00 10 1020.7
20260505213721 46 19 0.0 2.0 0.00 0.00 0.00 10 1020.6
20260505213218 46 46 0.0 2.0 0.00 0.00 0.00 10 1020.6
20260505212714 47 35 0.0 0.0 0.00 0.00 0.00 10 1020.6
20260505212212 46 24 0.0 0.0 0.00 0.00 0.00 10 1020.8
20260505211708 47 17 1.0 3.0 0.00 0.00 0.00 10 1020.8
20260505211206 47 11 2.0 5.0 0.00 0.00 0.00 10 1020.7
20260505210702 47 26 0.0 3.0 0.00 0.00 0.00 10 1020.6
20260505210159 47 43 0.0 2.0 0.00 0.00 0.00 10 1021.0
20260505205656 45 359 16.0 20.0 0.00 0.00 0.00 10 1020.9
20260505205154 46 29 0.0 2.0 0.00 0.00 0.00 10 1021.0
20260505204651 46 26 1.0 2.0 0.00 0.00 0.00 10 1020.9
20260505204149 46 19 2.0 5.0 0.00 0.00 0.00 10 1020.9
20260505203646 47 13 0.0 1.0 0.00 0.00 0.00 10 1020.9
20260505203142 45 46 0.0 1.0 0.00 0.00 0.00 10 1021.0
20260505202638 47 41 1.0 2.0 0.00 0.00 0.00 10 1021.2
20260505202134 47 346 0.0 0.0 0.00 0.00 0.00 10 1020.9
20260505201631 46 42 1.0 2.0 0.00 0.00 0.00 10 1021.2
20260505201129 45 17 0.0 0.0 0.00 0.00 0.00 10 1021.0
20260505200627 46 17 0.0 1.0 0.00 0.00 0.00 10 1021.1
20260505200124 46 13 0.0 0.0 0.00 0.00 0.00 10 1021.1
20260505195620 46 36 0.0 0.0 0.00 0.00 0.00 10 1021.0
20260505195117 45 27 1.0 5.0 0.00 0.00 0.00 10 1020.8
20260505194614 46 55 0.0 0.0 0.00 0.00 0.00 10 1021.0
20260505194110 46 8 1.0 3.0 0.00 0.00 0.00 10 1020.9
20260505193607 44 1 0.0 0.0 0.00 0.00 0.00 10 1021.2
20260505193104 47 15 1.0 9.0 0.00 0.00 0.00 10 1021.0
20260505192603 46 21 0.0 0.0 0.00 0.00 0.00 10 1021.2
20260505192100 46 17 0.0 1.0 0.00 0.00 0.00 10 1021.0
20260505191558 45 47 1.0 3.0 0.00 0.00 0.00 10 1021.0
20260505191055 45 343 1.0 3.0 0.00 0.00 0.00 10 1021.1
20260505190550 45 15 0.0 1.0 0.00 0.00 0.00 10 1021.0
20260505190046 46 9 0.0 2.0 0.00 0.00 0.00 10 1021.3
20260505185543 45 6 0.0 3.0 0.00 0.00 0.00 10 1021.2
20260505185039 46 14 0.0 2.0 0.00 0.00 0.00 10 1021.0
20260505184536 45 23 0.0 3.0 0.00 0.00 0.00 10 1021.1
20260505184033 46 27 0.0 0.0 0.00 0.00 0.00 10 1021.0
20260505183530 45 24 1.0 3.0 0.00 0.00 0.00 10 1021.1
20260505183027 44 22 0.0 3.0 0.00 0.00 0.00 10 1021.2
20260505182523 44 356 1.0 5.0 0.00 0.00 0.00 10 1021.2
20260505182020 45 1 0.0 2.0 0.00 0.00 0.00 10 1021.2
20260505181517 46 23 1.0 3.0 0.00 0.00 0.00 10 1021.0
20260505181015 45 19 0.0 2.0 0.00 0.00 0.00 10 1021.0
20260505180510 42 6 0.0 2.0 0.00 0.00 0.00 10 1021.1
20260505180009 44 4 0.0 1.0 0.00 0.00 0.00 10 1021.0
20260505175503 45 28 0.0 0.0 0.00 0.00 0.00 10 1020.8
20260505175000 43 25 0.0 1.0 0.00 0.00 0.00 10 1020.8
20260505174457 43 359 1.0 3.0 0.00 0.00 0.00 10 1020.9
20260505173953 43 353 2.0 3.0 0.00 0.00 0.00 10 1021.0
20260505173449 42 39 0.0 1.0 0.00 0.00 0.00 10 1021.2
20260505172947 43 0 1.0 3.0 0.00 0.00 0.00 10 1021.3
20260505172445 43 8 0.0 3.0 0.00 0.00 0.00 10 1021.2
20260505171944 42 28 0.0 1.0 0.00 0.00 0.00 10 1021.6
20260505171441 42 6 0.0 2.0 0.00 0.00 0.00 10 1021.3
20260505170938 44 3 0.0 3.0 0.00 0.00 0.00 10 1021.1
20260505170435 43 1 0.0 2.0 0.00 0.00 0.00 10 1021.4
20260505165930 42 10 1.0 5.0 0.00 0.00 0.00 10 1021.3
20260505165426 44 27 1.0 3.0 0.00 0.00 0.00 10 1021.4
20260505164922 42 12 0.0 0.0 0.00 0.00 0.00 10 1021.2
20260505164419 41 15 1.0 3.0 0.00 0.00 0.00 10 1021.1
20260505163917 42 352 0.0 0.0 0.00 0.00 0.00 10 1021.1
20260505163415 43 7 1.0 2.0 0.00 0.00 0.00 10 1021.6
20260505162914 42 10 0.0 0.0 0.00 0.00 0.00 10 1021.2
20260505162409 42 38 0.0 0.0 0.00 0.00 0.00 10 1021.2
20260505161907 40 2 0.0 1.0 0.00 0.00 0.00 10 1021.6
20260505161403 40 11 0.0 0.0 0.00 0.00 0.00 10 1021.2
20260505160901 41 3 0.0 2.0 0.00 0.00 0.00 10 1021.3
20260505160359 40 2 0.0 1.0 0.00 0.00 0.00 10 1021.2
20260505153337 40 355 0.0 0.0 0.00 0.00 0.00 10 1021.6
20260505152834 40 43 0.0 1.0 0.00 0.00 0.00 10 1021.4
20260505152331 39 13 0.0 0.0 0.00 0.00 0.00 10 1021.4
20260505151826 40 41 0.0 1.0 0.00 0.00 0.00 10 1021.6
20260505151323 39 43 0.0 0.0 0.00 0.00 0.00 10 1021.8
20260505150819 39 17 0.0 1.0 0.00 0.00 0.00 10 1021.6
20260505150316 38 18 0.0 0.0 0.00 0.00 0.00 10 1021.6
20260505140241 36 26 0.0 0.0 0.00 0.00 0.00 10 1021.8
20260505130205 33 41 0.0 0.0 0.00 0.00 0.00 10 1020.8
20260505124655 31 47 0.0 0.0 0.00 0.00 0.00 10 1020.8
20260505124151 30 25 0.0 0.0 0.00 0.00 0.00 10 1020.6
20260505123647 29 39 0.0 0.0 0.00 0.00 0.00 10 1020.6
20260505123144 29 30 0.0 0.0 0.00 0.00 0.00 10 1020.6
20260505122641 29 34 0.0 0.0 0.00 0.00 0.00 10 1020.5
20260505122138 28 37 0.0 0.0 0.00 0.00 0.00 10 1020.5
20260505121634 28 31 0.0 0.0 0.00 0.00 0.00 10 1020.5
20260505121132 28 13 0.0 0.0 0.00 0.00 0.00 10 1020.3
20260505120627 28 6 0.0 0.0 0.00 0.00 0.00 10 1020.3
20260505120123 28 352 0.0 0.0 0.00 0.00 0.00 10 1020.5
20260505115618 28 347 0.0 0.0 0.00 0.00 0.00 10 1020.5
20260505115116 28 0 0.0 0.0 0.00 0.00 0.00 10 1020.5
20260505114612 28 13 0.0 0.0 0.00 0.00 0.00 10 1020.3
20260505114109 28 11 0.0 0.0 0.00 0.00 0.00 10 1020.1
20260505113605 27 352 0.0 0.0 0.00 0.00 0.00 10 1020.1
20260505113102 27 350 0.0 0.0 0.00 0.00 0.00 10 1020.2
20260505112558 28 3 0.0 0.0 0.00 0.00 0.00 10 1020.1
20260505112056 29 22 0.0 0.0 0.00 0.00 0.00 10 1020.0
20260505111550 29 34 0.0 0.0 0.00 0.00 0.00 10 1020.3
20260505111046 30 31 0.0 0.0 0.00 0.00 0.00 10 1020.2
20260505110543 31 33 0.0 0.0 0.00 0.00 0.00 10 1020.3
20260505102015 34 13 1.0 1.0 0.00 0.00 0.00 10 1020.2
20260505101514 34 22 0.0 0.0 0.00 0.00 0.00 10 1020.5
20260505101010 34 14 0.0 0.0 0.00 0.00 0.00 10 1020.2
20260505100507 34 12 0.0 0.0 0.00 0.00 0.00 10 1020.3
20260505100004 34 17 0.0 0.0 0.00 0.00 0.00 10 1020.3
20260505095500 34 25 0.0 0.0 0.00 0.00 0.00 10 1020.1
20260505094956 34 29 0.0 0.0 0.00 0.00 0.00 10 1020.2
20260505094453 34 15 0.0 0.0 0.00 0.00 0.00 10 1020.1
20260505093949 34 9 0.0 0.0 0.00 0.00 0.00 10 1020.0
20260505093446 34 17 0.0 0.0 0.00 0.00 0.00 10 1020.1
20260505092943 34 22 0.0 0.0 0.00 0.00 0.00 10 1019.9
20260505092441 33 15 0.0 0.0 0.00 0.00 0.00 10 1020.1
20260505091938 33 359 0.0 0.0 0.00 0.00 0.00 10 1020.1
20260505091435 33 10 0.0 0.0 0.00 0.00 0.00 10 1020.1
20260505090933 33 20 0.0 0.0 0.00 0.00 0.00 10 1020.0
20260505090431 33 23 0.0 0.0 0.00 0.00 0.00 10 1020.1
20260505085928 34 26 0.0 0.0 0.00 0.00 0.00 10 1020.0
20260505085426 34 15 0.0 0.0 0.00 0.00 0.00 10 1019.9
20260505084924 35 21 0.0 0.0 0.00 0.00 0.00 10 1020.0
20260505084422 34 27 0.0 0.0 0.00 0.00 0.00 10 1020.0
20260505083920 33 22 0.0 0.0 0.00 0.00 0.00 10 1020.1
20260505083417 33 5 0.0 0.0 0.00 0.00 0.00 10 1020.0
20260505082913 33 20 0.0 0.0 0.00 0.00 0.00 10 1019.8
20260505082409 33 18 0.0 0.0 0.00 0.00 0.00 10 1019.8
20260505081906 33 13 0.0 0.0 0.00 0.00 0.00 10 1019.8
20260505081403 33 25 0.0 0.0 0.00 0.00 0.00 10 1020.1
20260505080859 34 34 0.0 0.0 0.00 0.00 0.00 10 1019.9
20260505080355 34 23 0.0 0.0 0.00 0.00 0.00 10 1019.9
20260505075851 34 37 0.0 0.0 0.00 0.00 0.00 10 1020.0
20260505075348 35 43 0.0 0.0 0.00 0.00 0.00 10 1019.9
20260505074845 35 40 0.0 0.0 0.00 0.00 0.00 10 1019.9
20260505074342 35 39 0.0 0.0 0.00 0.00 0.00 10 1019.7
20260505073840 35 32 0.0 0.0 0.00 0.00 0.00 10 1019.8
20260505073338 37 31 0.0 0.0 0.00 0.00 0.00 10 1019.5
20260505072834 36 13 0.0 0.0 0.00 0.00 0.00 10 1019.7
20260505072330 35 332 0.0 0.0 0.00 0.00 0.00 10 1020.0
20260505071827 37 47 0.0 0.0 0.00 0.00 0.00 10 1019.7